Location: Byszew
(52.1813°N, 19.2693°E)
Time: 18:41:11
(UTC+00:00)

Ariane Rocket - Visible Passes

Search period start: 22 June 2021 00:00
Search period end: 02 July 2021 00:00
Orbit: 761 x 769 km, 98.7° (Epoch: 21 June)

Date Brightness Start Highest point End Pass type
(mag) Time Alt. Az. Time Alt. Az. Time Alt. Az.
22 Jun 4.9 19:52:05 10° SSW 19:56:23 27° W 20:00:43 10° NW visible
24 Jun 5.4 20:18:41 10° SW 20:22:01 17° W 20:25:23 10° NW visible
26 Jun 5.8 20:46:41 10° W 20:47:45 11° W 20:48:49 10° WNW visible
27 Jun 5.2 20:06:31 10° SW 20:10:22 21° W 20:14:15 10° NW visible
29 Jun 5.6 20:33:34 10° WSW 20:36:03 13° W 20:38:32 10° NW visible
30 Jun 5.0 19:54:29 10° SSW 19:58:44 26° W 20:03:01 10° NW visible
